Location: Mequon Rotary Park
(43.2522°N, 87.9594°W)
Time: 01:54:54
(UTC-05:00)

Daily predictions for brighter satellites

Satellite Brightness Start Highest point End
(mag) Time Altitude Azimuth Time Altitude Azimuth Time Altitude Azimuth
Meteor 2-3 Rocket 4.4 00:05:45 37° ESE 00:06:59 41° E 00:12:20 10° NNE
ERBS 4.4 00:09:15 20° ENE 00:09:15 20° ENE 00:10:28 10° ENE
COS B Rocket 3.3 00:06:17 10° N 00:09:45 67° W 00:09:45 67° W
ASTEX 1 3.8 00:06:22 10° NNE 00:11:03 45° E 00:11:38 43° ESE
H-2A R/B 4.3 00:12:25 12° WSW 00:14:56 15° W 00:18:03 10° NW
Cosmos 2237 Rocket 2.6 00:12:55 10° NW 00:18:26 51° WSW 00:19:39 43° SSW
Cosmos 2082 4.1 00:18:01 31° SW 00:20:43 62° WNW 00:26:25 10° NNE
ATLAS 2AS CENTAUR R/B 2.9 00:16:57 31° SSW 00:21:03 84° ESE 00:29:12 10° NE
ALOS 2 2.4 00:23:07 76° S 00:23:28 86° W 00:27:52 10° NNW
Cosmos 389 Rocket 2.9 00:21:05 10° N 00:24:12 61° NNE 00:24:12 61° NNE
Cosmos 1892 4.2 00:25:17 27° ENE 00:25:17 27° ENE 00:28:02 10° NNE
Cosmos 1869 Rocket 3.5 00:24:28 67° SW 00:24:56 76° W 00:29:27 10° N
Cosmos 1269 Rocket 4.0 00:24:09 10° NNW 00:29:26 69° WSW 00:30:21 57° SSW
Cosmos 1733 Rocket 4.1 00:29:42 33° E 00:29:49 33° E 00:33:49 10° NNE
Geosat 3.9 00:28:57 10° NNE 00:33:59 68° ESE 00:34:39 60° SSE
Coronas F rocket 4.4 00:35:40 12° NE 00:35:40 12° NE 00:36:00 10° NE
Cosmos 1340 Rocket 3.8 00:37:51 35° ENE 00:37:51 35° ENE 00:41:03 10° NNE
Cosmos 2074 Rocket 3.9 00:41:14 48° S 00:43:10 89° WNW 00:49:31 10° N
In-Cosmos 22 Rocket 4.1 00:43:30 54° SSW 00:44:52 87° W 00:50:39 10° N
CZ-4C R/B 4.1 00:38:41 10° NNW 00:44:57 36° NE 00:51:50 10° ESE
USA 238 DEB 4.2 00:38:32 10° NNW 00:45:29 58° NE 00:50:17 21° ESE
USA 238 4.2 00:38:38 10° NNW 00:45:35 58° NE 00:50:25 20° ESE
Lacrosse 4 Rocket 1.4 00:41:24 10° NNW 00:45:49 85° WSW 00:45:57 83° SSW
ATLAS 3B R/B 2.6 00:39:12 10° NW 00:46:14 77° WSW 00:48:24 46° SSE
CZ-4B R/B 2.6 00:51:18 37° WNW 00:51:18 37° WNW 00:53:56 10° NNW
Landsat 5 3.8 00:50:52 58° WSW 00:51:01 59° W 00:55:29 10° NNW
NOSS 2-3 (E) 3.8 00:55:10 64° S 00:55:49 73° ESE 01:01:29 10° NE
H-2A R/B 3.3 00:53:01 10° N 00:56:56 42° WNW 00:57:31 39° W
Cosmos 1825 4.4 00:58:09 16° E 00:58:09 16° E 01:00:27 10° NE
Cosmos 2227 Rocket 3.7 00:54:43 16° WSW 00:58:31 32° NW 01:03:34 10° N
Cosmos 1356 Rocket 3.9 01:00:18 46° E 01:00:18 46° E 01:03:57 10° NNE
Aureole 2 Rocket 3.5 00:57:23 10° NNW 00:59:28 39° N 00:59:28 39° N
Cosmos 2333 Rocket 3.8 00:56:23 10° NW 01:00:28 20° W 01:01:13 20° WSW
Cosmos 1125 Rocket 4.3 00:59:16 31° WSW 01:01:14 44° WNW 01:06:20 10° N
Okean 1-7 4.2 01:02:00 10° NNW 01:05:47 30° W 01:05:48 30° W
Cosmos 2154 Rocket 4.1 01:05:34 46° SSE 01:07:29 70° E 01:13:45 10° NNE
Cosmos 494 Rocket 4.4 01:03:01 10° NNW 01:08:13 57° ENE 01:09:55 39° ESE
SL-16 R/B 2.6 01:03:25 10° NW 01:08:47 44° WSW 01:09:30 42° SW
Cosmos 2227 4.2 01:08:04 54° SSE 01:09:08 66° ESE 01:14:46 10° NNE
Cosmos 1689 Rocket 4.4 01:10:13 21° WNW 01:10:13 21° WNW 01:11:57 10° NW
Cosmos 2263 Rocket 4.0 01:08:18 17° ESE 01:09:28 18° E 01:13:06 10° ENE
BREEZE-M DEB (TANK) 4.3 01:08:02 24° WSW 01:10:51 76° NNW 01:25:50 10° ENE
Cosmos 1408 4.5 01:11:54 22° E 01:11:54 22° E 01:14:48 10° NE
USA 234 3.7 01:07:49 10° ESE 01:14:11 60° NNE 01:20:37 10° NW
Cosmos 1674 Rocket 3.4 01:12:40 10° N 01:17:06 89° ENE 01:17:23 79° S
Cosmos 44 4.1 01:17:14 39° SE 01:17:40 40° ESE 01:22:44 10° NE
COSMOS 2455 3.4 01:15:24 10° NW 01:20:56 38° WSW 01:21:35 37° SW
NOSS 2-3 (C) 4.1 01:21:32 47° WSW 01:23:00 72° NW 01:28:49 10° NE
Cosmos 1975 Rocket 4.2 01:20:56 10° N 01:24:59 35° ENE 01:26:06 30° ESE
Cosmos 2297 Rocket 3.8 01:22:46 15° WSW 01:26:26 28° NW 01:31:15 10° N
Cosmos 1607 4.1 01:21:56 10° NNW 01:28:04 68° NE 01:31:45 25° SE
Meteor 2-6 Rocket 4.2 01:22:17 10° N 01:28:06 85° W 01:29:46 50° S
Cosmos 1932 4.4 01:24:20 10° NW 01:30:44 77° WSW 01:33:02 42° SSE
Cosmos 1908 Rocket 3.5 01:31:58 67° SE 01:32:16 70° E 01:36:36 10° NNE
Helios 1A Rocket 4.1 01:29:01 10° N 01:32:44 32° WNW 01:33:21 30° W
Cosmos 2341 Rocket 4.0 01:32:24 46° S 01:34:32 88° E 01:40:58 10° N
Uosat 12 SS-18 rocket 4.1 01:34:12 63° SSW 01:34:59 88° SE 01:39:30 10° NE
Cosmos 1943 3.8 01:30:00 10° NNW 01:35:35 53° ENE 01:38:54 24° SE
CZ-2C R/B 3.3 01:36:35 49° S 01:38:12 76° WSW 01:43:55 10° NNW
Cosmos 44 Rocket 3.7 01:37:35 44° WSW 01:39:07 65° NW 01:44:21 10° NNE
Cosmos 921 Rocket 2.8 01:39:19 77° SE 01:39:28 78° ESE 01:43:40 10° NNE
CZ-2C R/B 2.9 01:35:48 10° N 01:40:55 54° WNW 01:42:21 41° WSW
Cosmos 1606 2.6 01:37:39 10° N 01:41:25 85° N 01:41:25 85° N
Cosmos 1603 3.8 01:36:35 10° NNW 01:42:11 61° WSW 01:43:22 50° SSW
NOSS 3-4 (A) 4.2 01:40:58 33° SSE 01:42:39 39° ESE 01:48:37 10° NE
MOS 1-B Rocket 4.4 01:41:29 38° SW 01:42:40 43° W 01:48:00 10° NNW
NOSS 3-4 (C) 4.3 01:41:04 33° SSE 01:42:45 38° ESE 01:48:42 10° NE
Sich 1 Rocket 3.6 01:43:04 61° WSW 01:43:33 67° W 01:48:03 10° N
NOSS 3-2 (A) 4.3 01:37:34 10° NNW 01:44:54 63° NE 01:52:50 10° SE
Cosmos 2084 Rocket 3.1 01:53:22 77° WNW 01:53:26 77° NW 01:57:16 10° NE
PSLV R/B 4.2 01:54:48 51° W 01:54:48 51° W 01:58:42 10° NNW
Cosmos 2251 Rocket 4.3 01:54:32 10° NW 01:59:21 35° WSW 01:59:50 35° WSW
SL-8 Rocket 4.0 01:59:57 40° S 02:02:25 86° E 02:08:47 10° N
Cosmos 1238 Rocket 3.3 01:59:37 10° NNW 02:03:42 44° W 02:03:42 44° W
Cosmos 2218 Rocket 4.0 02:01:44 38° S 02:04:18 75° E 02:10:37 10° N
Cosmos 1782 4.2 02:01:34 10° NNW 02:04:39 27° W 02:04:39 27° W
Coronas F rocket 4.1 02:06:47 13° NW 02:06:47 13° NW 02:07:29 10° NW
Cosmos 1867 4.3 02:04:05 10° NNW 02:09:28 52° NE 02:14:46 10° SE
BREEZE-M DEB (TANK) 3.8 02:01:08 10° WNW 02:13:01 69° SSW 02:16:13 16° SE
ATLAS 2AS CENTAUR R/B 4.5 02:06:13 10° W 02:13:03 32° NNW 02:20:11 10° NNE
Cosmos 1242 Rocket 3.8 02:09:57 10° N 02:13:11 34° ENE 02:14:11 28° ESE
RESURS DK-1 3.6 02:15:39 29° SE 02:16:22 30° ESE 02:20:03 10° NE
ATLAS 2A CENTAUR R/B 4.2 02:19:13 22° SSE 02:19:58 23° SSE 02:31:53 10° ESE
Cosmos 1378 Rocket 4.2 02:16:53 10° NNW 02:20:56 37° W 02:21:16 36° WSW
Tiangong 1 3.0 02:24:45 21° E 02:24:45 21° E 02:25:58 10° E
NPP 4.1 02:18:13 10° NNE 02:23:29 53° E 02:25:55 30° SSE
Cosmos 2366 rocket 3.9 02:20:56 36° S 02:23:37 90° WNW 02:29:50 10° N
Okean 2 Rocket 3.3 02:26:55 46° SW 02:27:58 59° W 02:32:26 10° N
Okean 3 4.2 02:27:41 10° NNW 02:31:39 37° W 02:32:05 36° WSW
CRYOSAT 2 4.3 02:26:50 10° N 02:31:43 84° W 02:33:25 41° SSW
Cosmos 1825 3.1 02:33:05 33° W 02:33:26 33° WNW 02:36:56 10° N
CZ-4C R/B 2.8 02:26:58 10° NW 02:34:01 66° WSW 02:40:36 15° SSE
ATLAS 3B R/B 4.4 02:32:41 10° WNW 02:35:37 13° WSW 02:35:37 13° WSW
ERS-2 2.8 02:32:09 10° NNE 02:35:46 47° E 02:36:43 37° SE
USA 238 DEB 4.4 02:30:02 10° NW 02:36:06 32° WSW 02:37:40 29° SW
USA 238 4.4 02:30:07 10° NW 02:36:12 33° WSW 02:37:48 29° SW
Meteor 2-19 Rocket 4.5 02:36:44 30° S 02:40:01 80° E 02:46:13 10° N
Cosmos 1782 Rocket 4.4 02:39:31 31° WSW 02:40:30 35° WNW 02:44:33 10° N
BREEZE-M DEB (TANK) 4.4 02:38:06 10° WNW 02:41:39 47° NNE 02:53:26 10° E
Cosmos 1727 Rocket 4.0 02:36:01 10° NNW 02:42:14 71° W 02:45:30 29° S
Cosmos 1408 4.1 02:46:26 23° W 02:46:56 24° WNW 02:50:03 10° NNW
ARIANE 5 R/B 3.9 02:45:26 10° NE 02:49:49 30° E 02:53:32 13° SSE
Meteor 1-14 Rocket 4.3 02:46:51 31° SSW 02:49:49 76° W 02:55:47 10° N
PSLV R/B 4.2 02:46:00 10° N 02:49:58 40° WNW 02:51:14 32° WSW
CZ-2D R/B 4.0 02:46:28 10° NE 02:50:51 25° E 02:55:15 10° SSE
COSMOS 2406 3.9 02:45:18 10° NNW 02:51:00 55° ENE 02:56:38 10° SE
Meteor 2-8 Rocket 4.4 02:45:33 10° NNW 02:51:35 68° W 02:54:58 27° S
Cosmos 1844 Rocket 4.3 02:48:04 13° SSE 02:51:56 27° ESE 02:56:35 10° NE
Cosmos 1184 Rocket 3.2 02:51:54 45° WSW 02:52:17 48° WNW 02:55:35 10° N
Cosmos 2263 Rocket 2.3 02:50:00 31° SW 02:52:46 69° WNW 02:58:27 10° NNE
Iridium 4 Rocket 3.3 02:48:57 10° N 02:53:27 68° W 02:55:32 33° SSW
OTV 4 3.0 02:57:04 11° SE 02:57:04 11° SE 02:57:18 10° ESE
CBERS-1 4.0 02:52:07 10° NNE 02:57:18 87° ESE 03:00:00 29° SSW
USA 234 3.5 02:51:13 11° SSE 02:57:18 45° SW 03:03:33 10° WNW
USA 161 2.9 02:56:54 22° SE 02:58:11 36° ENE 03:00:52 10° N
H-2A R/B 4.3 02:56:59 22° S 02:58:22 23° S 03:13:11 10° SE
Abrixas rocket 2.9 03:01:03 37° SSE 03:01:17 38° SE 03:04:25 10° ENE
Cosmos 2278 Rocket 4.4 03:02:24 10° SE 03:05:55 17° E 03:09:27 10° ENE
Cosmos 1300 Rocket 3.7 03:07:39 25° S 03:10:05 69° E 03:14:26 10° NNE
NOSS 3-2 (C) 4.1 03:02:55 10° NW 03:10:15 56° WSW 03:18:04 10° SSE
IRS-1C 4.1 03:06:41 10° NNE 03:12:04 85° WNW 03:15:22 24° SSW
Cosmos 1536 Rocket 3.9 03:10:29 10° NNW 03:14:40 47° W 03:16:31 29° SSW
CENTAUR R/B 3.7 03:08:14 10° NNW 03:15:52 59° NE 03:24:01 10° SE
Meteor 1-18 Rocket 4.3 03:13:12 10° NNW 03:18:44 59° W 03:22:39 20° S
Cosmos 1943 4.4 03:14:51 10° NW 03:19:13 23° W 03:20:39 21° WSW
Cosmos 1190 Rocket 3.9 03:14:42 10° NNW 03:19:56 69° WSW 03:24:31 13° S
Cosmos 1934 Rocket 4.3 03:16:09 14° S 03:21:39 66° E 03:27:46 10° NNE
SL-16 R/B 2.9 03:15:32 10° SSE 03:21:42 68° ENE 03:27:54 10° N
Gbstr 26 Del rocket 4.4 03:20:43 17° SSE 03:22:12 21° SE 03:25:05 10° E
Cosmos 2056 Rocket 3.8 03:23:52 23° SW 03:27:04 57° WNW 03:32:16 10° NNE
Okean 1-7 Rocket 3.6 03:23:14 10° N 03:27:49 86° W 03:31:45 14° S
Spot 4 Rocket 4.0 03:23:14 10° NNE 03:28:25 83° WNW 03:32:05 20° SSW
Cosmos 1000 Rocket 4.5 03:23:57 10° NNW 03:30:03 68° W 03:35:26 14° S
NOSS 3-4 (A) 4.3 03:28:23 15° WSW 03:33:27 46° NW 03:39:49 10° NNE
NOSS 3-4 (C) 4.3 03:28:29 15° WSW 03:33:32 46° NW 03:39:55 10° NNE
Cosmos 1140 Rocket 4.4 03:29:55 10° N 03:34:55 50° ENE 03:39:53 10° SE
Cosmos 489 Rocket 4.5 03:30:36 10° NNW 03:36:55 87° ENE 03:43:08 10° SSE
SL-08 R/B 4.4 03:35:46 21° SW 03:38:01 29° W 03:42:19 10° NW
Cosmos 407 Rocket 3.5 03:33:38 10° NNW 03:38:41 58° WSW 03:43:45 10° S
Okean O Rocket 3.5 03:36:53 10° NE 03:40:30 25° E 03:44:06 10° SSE
Cosmos 676 Rocket 3.9 03:37:44 10° NNW 03:42:56 72° WSW 03:48:04 10° S
Okean 1 Rocket 3.3 03:42:19 20° SSW 03:45:15 55° W 03:49:39 10° N
SL-27 R/B 2.6 03:41:48 10° NNW 03:45:23 56° WSW 03:48:44 11° S
Meteor 1-11 Rocket 4.0 03:39:52 11° S 03:45:29 79° E 03:51:29 10° NNE
Resurs 1-4 Rocket 2.3 03:40:46 10° NNE 03:46:06 75° ESE 03:51:14 11° S
EO 1 Del DPAF 3.2 03:44:12 10° S 03:48:06 76° WSW 03:52:00 10° NNW
Cosmos 1605 Rocket 4.1 03:43:34 10° S 03:49:41 77° E 03:55:56 10° N
IRS-1D 3.5 03:44:34 10° NNE 03:49:44 84° WNW 03:54:11 13° SSW
GP-B 4.0 03:46:00 10° NNW 03:49:59 33° W 03:52:45 17° SW
Okean 1 4.0 03:46:46 10° NNW 03:50:25 35° W 03:52:52 18° SSW
Meteor 1-13 Rocket 4.2 03:45:27 10° NNW 03:51:04 72° W 03:56:48 10° S
Cosmos 1821 Rocket 4.2 03:45:49 15° SSW 03:51:11 64° W 03:57:34 10° N
Cosmos 2123 Rocket 4.0 03:44:53 10° N 03:51:16 84° W 03:57:34 10° S
RESURS DK-1 3.9 03:51:35 13° WSW 03:54:27 26° NW 03:57:58 10° N
NOSS 2-2 (C) 4.4 03:53:24 12° S 03:56:55 43° ESE 04:01:22 10° NE
Cosmos 1400 Rocket 3.7 03:55:00 10° S 03:58:42 47° E 04:02:29 10° NNE
Tiangong 1 1.7 03:56:54 13° W 03:59:18 32° SSW 04:02:05 10° SE
UNK 3.8 03:55:40 10° S 04:00:13 63° W 04:04:51 10° NNW
Cosmos 1812 4.1 03:57:13 10° NW 04:00:19 23° W 04:02:22 15° SW
Cosmos 1633 2.6 04:01:36 10° S 04:05:11 78° E 04:08:49 10° N
SME Rocket 2.9 04:02:01 10° S 04:05:44 61° WSW 04:09:41 10° NNW
Meteor 2-15 Rocket 4.4 04:02:02 10° NNW 04:08:12 77° W 04:14:19 10° S
CZ-2D R/B 3.7 04:05:04 10° NNE 04:09:03 66° ESE 04:13:01 10° S
ERS-2 4.4 04:07:22 10° NNW 04:09:10 13° WNW 04:10:57 10° W
Cosmos 1954 Rocket 4.2 04:07:19 10° NNW 04:12:18 50° WSW 04:17:17 10° S
Cosmos 1455 Rocket 3.7 04:08:59 10° S 04:13:21 57° E 04:17:44 10° NNE
Okean 2 3.7 04:10:06 10° N 04:14:12 70° E 04:18:16 10° SSE
BREEZE-M DEB (TANK) 3.8 04:13:12 10° S 04:15:09 17° SE 04:17:13 10° E
Meteor 1-23 Rocket 4.3 04:12:07 10° NNW 04:17:53 84° W 04:23:33 10° S
CZ-4C R/B 4.4 04:18:24 10° W 04:21:38 13° WSW 04:24:58 10° SW
Cosmos 1315 Rocket 3.6 04:17:44 10° S 04:21:43 52° E 04:25:41 10° NNE
Cosmos 1356 3.5 04:19:48 10° S 04:23:21 87° W 04:26:55 10° N
NOSS 2-2 (E) 3.7 04:19:17 10° SSW 04:23:26 84° SE 04:28:26 10° NE
Cosmos 1461 3.9 04:19:14 10° SSW 04:23:47 50° ESE 04:28:16 10° NE
Cosmos 1025 Rocket 3.4 04:20:26 10° NNW 04:24:30 43° W 04:28:33 10° SSW
BREEZE-M TANK 3.0 04:25:17 10° W 04:27:24 23° SSW 04:30:21 10° SSE
COSMOS 2487 2.5 04:24:41 10° NNW 04:28:17 62° WSW 04:31:51 10° S
ARIANE 5 R/B 3.4 04:24:30 10° N 04:28:56 33° WNW 04:33:22 10° SW
OTV 4 2.2 04:28:45 10° WSW 04:30:35 15° SSW 04:32:25 10° SSE
CZ-2D R/B 2.7 04:25:57 10° N 04:31:07 47° WNW 04:36:19 10° SW
USA 129 2.3 04:29:56 10° S 04:31:58 36° W 04:33:59 10° NNW
Cosmos 1975 4.4 04:29:50 10° SSE 04:33:30 36° E 04:37:11 10° NNE
Cosmos 1452 Rocket 4.4 04:28:46 10° SW 04:33:33 35° WNW 04:38:22 10° N
Cosmos 1844 3.9 04:28:00 10° SW 04:33:38 64° WNW 04:39:22 10° NNE
Thor Agena Rocket 3.7 04:28:33 10° SSE 04:33:45 86° ENE 04:38:56 10° NNW
COSMOS 2406 4.4 04:30:28 10° NW 04:34:53 23° W 04:39:15 10° SSW
Cosmos 1844 Rocket 3.2 04:30:06 10° SW 04:35:32 47° WNW 04:41:01 10° NNE
Cosmos 2263 Rocket 4.3 04:35:01 10° WNW 04:37:47 14° NW 04:40:35 10° NNW
Abrixas rocket 3.0 04:35:04 10° W 04:38:20 48° NNW 04:41:37 10° ENE
Cosmos 1544 Rocket 3.8 04:34:08 10° SSW 04:38:30 54° WNW 04:42:50 10° N
Cosmos 614 Rocket 4.0 04:35:31 10° NNW 04:40:41 67° WSW 04:45:45 10° S
Cosmos 2100 Rocket 4.2 04:36:02 10° S 04:42:15 85° E 04:48:36 10° N
